When you browse on this site, cookies collect data to enhance your experience and personalize the content and advertising you see.
Visit our Privacy Policy to learn more. By continuing to use the site, you agree to this use of cookies and data.
  • In Spain
  • List of Countries
  • For 7 days
  • Water Temperature
  • Weather Map
  • Weather Widgets
  • user-avatar
    Login

    Hourly Weather Tamale

    Today, 17 February, Monday

    Time Temperature Precipitation Wind Pressure Humidity
    00:00 +26°C° 0 mm 1 mps 741 mmHg 15%
    01:00 +26°C° 0 mm 1 mps 741 mmHg 15%
    02:00 +25°C° 0 mm 1 mps 741 mmHg 16%
    03:00 +24°C° 0 mm 1 mps 741 mmHg 16%
    04:00 +24°C° 0 mm 1 mps 741 mmHg 17%
    05:00 +23°C° 0 mm 1 mps 741 mmHg 17%
    06:00 +23°C° 0 mm 1 mps 742 mmHg 18%
    07:00 +26°C° 0 mm 1 mps 742 mmHg 17%
    08:00 +30°C° 0 mm 1 mps 743 mmHg 16%
    09:00 +33°C° 0 mm 1 mps 743 mmHg 15%
    10:00 +36°C° 0 mm 1 mps 743 mmHg 12%
    11:00 +40°C° 0 mm 1 mps 742 mmHg 9%
    12:00 +44°C° 0 mm 1 mps 741 mmHg 5%
    13:00 +44°C° 0 mm 1 mps 741 mmHg 5%
    14:00 +45°C° 0 mm 1 mps 740 mmHg 5%
    15:00 +42°C° 0 mm 0 mps 739 mmHg 5%
    16:00 +42°C° 0 mm 1 mps 739 mmHg 6%
    17:00 +39°C° 0 mm 1 mps 739 mmHg 7%
    18:00 +35°C° 0 mm 1 mps 739 mmHg 8%
    19:00 +33°C° 0 mm 1 mps 739 mmHg 9%
    20:00 +32°C° 0 mm 1 mps 740 mmHg 10%
    21:00 +30°C° 0 mm 1 mps 741 mmHg 10%
    22:00 +27°C° 0 mm 0 mps 741 mmHg 11%
    23:00 +26°C° 0 mm 0 mps 741 mmHg 12%

    Tomorrow, 18 February, Tuesday

    Time Temperature Precipitation Wind Pressure Humidity
    00:00 +25°C° 0 mm 0 mps 740 mmHg 13%
    01:00 +26°C° 0 mm 1 mps 741 mmHg 20%
    02:00 +26°C° 0 mm 1 mps 741 mmHg 28%
    03:00 +25°C° 0 mm 1 mps 741 mmHg 35%
    04:00 +24°C° 0 mm 1 mps 741 mmHg 51%
    05:00 +24°C° 0 mm 1 mps 741 mmHg 67%
    06:00 +23°C° 0 mm 1 mps 742 mmHg 82%
    07:00 +26°C° 0 mm 1 mps 742 mmHg 75%
    08:00 +29°C° 0 mm 1 mps 743 mmHg 68%
    09:00 +31°C° 0 mm 2 mps 744 mmHg 61%
    10:00 +36°C° 0 mm 1 mps 743 mmHg 46%
    11:00 +41°C° 0 mm 1 mps 742 mmHg 32%
    12:00 +42°C° 0 mm 0 mps 742 mmHg 17%
    13:00 +42°C° 0 mm 0 mps 741 mmHg 15%
    14:00 +42°C° 0 mm 0 mps 740 mmHg 14%
    15:00 +42°C° 0 mm 0 mps 740 mmHg 12%
    16:00 +40°C° 0 mm 0 mps 739 mmHg 13%
    17:00 +40°C° 0 mm 1 mps 739 mmHg 15%
    18:00 +36°C° 0 mm 1 mps 739 mmHg 16%
    19:00 +34°C° 0 mm 1 mps 739 mmHg 16%
    20:00 +33°C° 0 mm 1 mps 740 mmHg 16%
    21:00 +31°C° 0 mm 1 mps 741 mmHg 15%
    22:00 +30°C° 0 mm 1 mps 741 mmHg 15%
    23:00 +29°C° 0 mm 1 mps 741 mmHg 15%

    Day after tomorrow, 19 February, Wednesday

    Time Temperature Precipitation Wind Pressure Humidity
    00:00 +28°C° 0 mm 1 mps 741 mmHg 15%
    01:00 +27°C° 0 mm 1 mps 741 mmHg 19%
    02:00 +26°C° 0 mm 1 mps 740 mmHg 24%
    03:00 +25°C° 0 mm 1 mps 740 mmHg 28%
    04:00 +25°C° 0 mm 1 mps 740 mmHg 40%
    05:00 +24°C° 0 mm 1 mps 741 mmHg 52%
    06:00 +24°C° 0 mm 1 mps 741 mmHg 64%
    07:00 +27°C° 0 mm 1 mps 741 mmHg 59%
    08:00 +29°C° 0 mm 1 mps 742 mmHg 54%
    09:00 +32°C° 0 mm 1 mps 743 mmHg 49%
    10:00 +36°C° 0 mm 1 mps 742 mmHg 38%
    11:00 +40°C° 0 mm 1 mps 742 mmHg 27%
    12:00 +43°C° 0 mm 1 mps 741 mmHg 17%
    13:00 +43°C° 0 mm 1 mps 740 mmHg 15%
    14:00 +44°C° 0 mm 1 mps 739 mmHg 13%
    15:00 +44°C° 0 mm 1 mps 738 mmHg 11%
    16:00 +42°C° 0 mm 1 mps 738 mmHg 13%
    17:00 +39°C° 0 mm 1 mps 738 mmHg 14%
    18:00 +36°C° 0 mm 1 mps 738 mmHg 16%
    19:00 +35°C° 0 mm 1 mps 738 mmHg 17%
    20:00 +33°C° 0 mm 1 mps 739 mmHg 18%
    21:00 +31°C° 0 mm 1 mps 739 mmHg 19%
    22:00 +31°C° 0 mm 1 mps 739 mmHg 20%
    23:00 +30°C° 0 mm 1 mps 740 mmHg 20%

    20 February, Thursday

    Time Temperature Precipitation Wind Pressure Humidity
    00:00 +29°C° 0 mm 1 mps 740 mmHg 21%
    01:00 +28°C° 0 mm 1 mps 739 mmHg 25%
    02:00 +25°C° 0 mm 0 mps 739 mmHg 29%
    03:00 +24°C° 0 mm 0 mps 739 mmHg 32%
    04:00 +23°C° 0 mm 0 mps 739 mmHg 43%
    05:00 +23°C° 0 mm 0 mps 740 mmHg 54%
    06:00 +22°C° 0 mm 0 mps 740 mmHg 65%
    07:00 +27°C° 0 mm 1 mps 741 mmHg 59%
    08:00 +30°C° 0 mm 1 mps 741 mmHg 53%
    09:00 +33°C° 0 mm 1 mps 742 mmHg 48%
    10:00 +36°C° 0 mm 1 mps 741 mmHg 37%
    11:00 +40°C° 0 mm 1 mps 741 mmHg 27%
    12:00 +43°C° 0 mm 1 mps 740 mmHg 17%
    13:00 +44°C° 0 mm 1 mps 740 mmHg 15%
    14:00 +44°C° 0 mm 1 mps 739 mmHg 14%
    15:00 +44°C° 0 mm 1 mps 738 mmHg 13%
    16:00 +42°C° 0 mm 1 mps 738 mmHg 14%
    17:00 +40°C° 0 mm 1 mps 737 mmHg 16%
    18:00 +36°C° 0 mm 1 mps 737 mmHg 18%
    19:00 +35°C° 0 mm 1 mps 738 mmHg 19%
    20:00 +33°C° 0 mm 1 mps 739 mmHg 21%
    21:00 +30°C° 0 mm 0 mps 739 mmHg 22%
    22:00 +31°C° 0 mm 1 mps 739 mmHg 25%
    23:00 +30°C° 0 mm 1 mps 739 mmHg 27%

    21 February, Friday

    Time Temperature Precipitation Wind Pressure Humidity
    00:00 +29°C° 0 mm 1 mps 739 mmHg 29%
    01:00 +28°C° 0 mm 1 mps 739 mmHg 40%
    02:00 +27°C° 0 mm 1 mps 739 mmHg 51%
    03:00 +26°C° 0 mm 1 mps 739 mmHg 62%
    04:00 +26°C° 0 mm 1 mps 740 mmHg 68%
    05:00 +25°C° 0 mm 1 mps 740 mmHg 73%
    06:00 +22°C° 0 mm 0 mps 740 mmHg 79%
    13:00 +43°C° 0 mm 2 mps 739 mmHg 13%
    14:00 +45°C° 0 mm 2 mps 738 mmHg 12%
    15:00 +45°C° 0 mm 2 mps 737 mmHg 10%
    16:00 +42°C° 0 mm 2 mps 737 mmHg 11%
    17:00 +40°C° 0 mm 1 mps 737 mmHg 13%
    18:00 +37°C° 0 mm 1 mps 737 mmHg 14%
    19:00 +35°C° 0 mm 1 mps 738 mmHg 16%
    20:00 +33°C° 0 mm 1 mps 738 mmHg 17%
    21:00 +32°C° 0 mm 1 mps 739 mmHg 19%
    22:00 +31°C° 0 mm 1 mps 739 mmHg 21%
    23:00 +30°C° 0 mm 1 mps 739 mmHg 23%

    22 February, Saturday

    Time Temperature Precipitation Wind Pressure Humidity
    00:00 +29°C° 0 mm 1 mps 740 mmHg 26%
    01:00 +28°C° 0 mm 1 mps 740 mmHg 37%
    02:00 +27°C° 0 mm 1 mps 740 mmHg 49%
    03:00 +26°C° 0 mm 2 mps 739 mmHg 61%
    04:00 +26°C° 0 mm 2 mps 740 mmHg 68%
    05:00 +26°C° 0 mm 2 mps 740 mmHg 76%
    06:00 +26°C° 0 mm 2 mps 741 mmHg 83%
    07:00 +28°C° 0 mm 2 mps 741 mmHg 74%
    08:00 +30°C° 0 mm 2 mps 742 mmHg 66%
    09:00 +32°C° 0 mm 2 mps 742 mmHg 57%
    10:00 +36°C° 0 mm 1 mps 742 mmHg 44%
    11:00 +41°C° 0 mm 1 mps 741 mmHg 31%
    12:00 +42°C° 0 mm 0 mps 741 mmHg 18%
    13:00 +42°C° 0 mm 0 mps 740 mmHg 16%
    14:00 +45°C° 0 mm 1 mps 739 mmHg 13%
    15:00 +45°C° 0 mm 1 mps 738 mmHg 11%
    16:00 +42°C° 0 mm 1 mps 738 mmHg 12%
    17:00 +40°C° 0 mm 1 mps 738 mmHg 13%
    18:00 +37°C° 0 mm 1 mps 738 mmHg 14%
    19:00 +33°C° 0 mm 0 mps 739 mmHg 16%
    20:00 +32°C° 0 mm 0 mps 739 mmHg 17%
    21:00 +31°C° 0 mm 0 mps 740 mmHg 18%
    22:00 +30°C° 0 mm 0 mps 740 mmHg 20%
    23:00 +29°C° 0 mm 0 mps 740 mmHg 23%
    Show more